Location: Unspecified
(38.0989°N, 0.6729°W)
Time: 11:23:12
(UTC+02:00)

Envisat - Visible Passes

Search period start: 31 March 2023 00:00
Search period end: 10 April 2023 00:00
Orbit: 763 x 765 km, 98.2° (Epoch: 30 March)

Date Brightness Start Highest point End Pass type
(mag) Time Alt. Az. Time Alt. Az. Time Alt. Az.
31 Mar 5.8 04:35:22 10° E 04:36:14 10° E 04:37:06 10° E visible
31 Mar 2.9 06:10:40 10° N 06:15:45 78° WNW 06:19:28 19° SSW visible
01 Apr 3.9 05:33:46 10° NNE 05:38:39 45° E 05:42:04 18° SSE visible
01 Apr 4.4 07:13:38 10° NNW 07:17:16 20° WNW 07:20:54 10° WSW visible
02 Apr 5.3 04:57:42 10° NE 05:01:19 19° E 05:04:41 11° SE visible
02 Apr 3.4 06:35:40 10° N 06:40:29 44° WNW 06:44:51 12° SW visible
03 Apr 3.0 05:58:23 10° NNE 06:03:29 81° ESE 06:07:27 17° S visible
04 Apr 4.4 05:21:41 10° NNE 05:26:17 34° E 05:30:03 14° SSE visible
04 Apr 4.1 07:00:58 10° NNW 07:05:06 26° WNW 07:09:14 10° WSW visible
05 Apr 5.6 04:46:07 10° ENE 04:48:54 15° E 04:51:42 10° SE visible
05 Apr 3.1 06:23:15 10° N 06:28:14 58° WNW 06:32:49 12° SSW visible
06 Apr 3.4 05:46:09 10° NNE 05:51:11 61° E 05:55:25 14° S visible
07 Apr 4.9 05:09:42 10° NE 05:13:56 26° E 05:18:00 11° SSE visible
07 Apr 3.7 06:48:23 10° N 06:52:54 33° WNW 06:57:23 10° SW visible
08 Apr 5.8 04:35:17 10° ENE 04:36:28 11° E 04:37:40 10° ESE visible
08 Apr 2.9 06:10:53 10° N 06:15:58 76° WNW 06:20:46 11° SSW visible
09 Apr 3.9 05:33:58 10° NNE 05:38:51 46° E 05:43:21 12° S visible
